Regional Weather Roundup
Issued by NWS

Home | Current Version | Previous Version | Text Only | Print | Product List | Glossary Off
Versions: 1 2 3 4 5 6 7 8 9 10 11 12 13 14 15 16 17 18 19 20 21 22 23 24 25 26 27 28 29 30 31 32 33 34 35 36 37 38 39 40 41 42 43 44 45 46 47 48 49 50

000
ASUS44 KMEG 271500
RWRTN
TENNESSEE HOURLY STATE WEATHER ROUNDUP
NATIONAL WEATHER SERVICE MEMPHIS TN
900 AM CST FRI FEB 27 2015

TNZ002-004-019-021-049-052-054-088>092-271600-
WEST TENNESSEE

CITY           SKY/WX    TMP DP  RH WIND       PRES   REMARKS
MEMPHIS INTL   MOSUNNY   25  12  58 NE15      30.58R WCI  13
NWS MEMPHIS      N/A     22 N/A N/A MISG        N/A
JACKSON        CLOUDY    22  13  68 N14       30.59R WCI   9
DYERSBURG      SUNNY     19   1  45 N13       30.64R WCI   7
UNION CITY     SUNNY     14   9  79 N12       30.63R WCI   0
PARIS          SUNNY     18  10  73 N10       30.59R WCI   6
LEXINGTON      SUNNY     21   3  45 NE14      30.55S WCI   8
SAVANNAH       SUNNY     25   9  50 N10       30.55S WCI  15
$$

TNZ008-025-027-028-033-062-065-066-271600-
NORTH MIDDLE TENNESSEE

CITY           SKY/WX    TMP DP  RH WIND       PRES   REMARKS
NASHVILLE      MOSUNNY   25   8  48 NE12G20   30.56R WCI  14
CLARKSVILLE    SUNNY     18  10  71 N14       30.59R WCI   4
COOKEVILLE     MOSUNNY   21  12  68 N8        30.50R WCI  12
CROSSVILLE     MOSUNNY   19  10  68 N8        30.42R WCI   9
$$

TNZ061-075-076-078-094-096-097-271600-
SOUTH MIDDLE TENNESSEE

CITY           SKY/WX    TMP DP  RH WIND       PRES   REMARKS
FAYETTEVILLE   PTSUNNY   21  16  79 N8          N/A  WCI  12
TULLAHOMA      CLOUDY    21  16  79 NE6       30.48R WCI  14
WINCHESTER     CLOUDY    25  18  74 N9        30.48R WCI  15
COLUMBIA         N/A     23  18  80 N6        30.52S WCI  16
SHELBYVILLE    PTSUNNY   25  12  58 NE8       30.52R WCI  16
$$

TNZ017-018-042-046-047-271600-
NORTHEAST TENNESSEE

CITY           SKY/WX    TMP DP  RH WIND       PRES   REMARKS
TRI CITIES     FLURRIES  27  18  69 N7        30.40R WCI  19
ELIZABETHTON   LGT SNOW  27  19  74 VRB7      30.37R WCI  19
$$

TNZ012-013-036-069-073-074-271600-
CENTRAL EAST TENNESSEE

CITY           SKY/WX    TMP DP  RH WIND       PRES   REMARKS
KNOXVILLE      PTSUNNY   25  15  66 NE8       30.46R WCI  16
OAK RIDGE      MOSUNNY   28  15  58 VRB5      30.48R WCI  23
GATLINBURG     PTSUNNY   25  18  74 W5        30.45R WCI  19
$$

TNZ083-085-099-271600-
SOUTHEAST TENNESSEE

CITY           SKY/WX    TMP DP  RH WIND       PRES   REMARKS
CHATTANOOGA    PTSUNNY   30  18  60 NE10      30.47R WCI  21
$$

SKY/WX REPORTED AS FAIR MEANS FEW OR NO CLOUDS BELOW
12 THOUSAND FEET.



USA.gov is the U.S. government's official web portal to all federal, state and local government web resources and services.